Location: *
(49.9853°N, 3.5569°E)
Time: 21:39:28
(UTC+00:00)

KORONAS-FOTON - Pass Details

Date: 22 September 2019
Orbit: 505 x 533 km, 82.4° (Epoch: 17 October)

Event Time Altitude Azimuth Distance (km) Brightness Sun altitude
Rises 19:15:32 0° 354° (N) 2,626 7.7 -15.2°
Reaches altitude 10° 19:17:43 10° 360° (N) 1,734 6.7 -15.5°
Maximum altitude 19:21:25 49° 76° (ENE) 663 4.0 -16.1°
Enters shadow 19:22:42 33° 130° (SE) 866 4.4 -16.2°
